Погода в Рыляках

Россия / Калужская область     54°42′19″N   35°06′40″E
темп.,
°C
ветер,
м/с
пор.,
м/с
влажн.,
%
обл.,
%
осадки,
мм/ч
давл.,
гПа
погр.,
м
4 августа, ср
ср400:00+13зюз248454 0.0 101476
03:00+15зюз3772100 0.0 1014265
06:00+13з25867 0.0 1015142
09:00+18з12635 0.0 1016540
12:00+19з23745 3.6 1016779
15:00+18з358449 7.8 1016491
18:00+20сз126324 0.9 1016562
21:00+16ю228793 2.1 101726
5 августа, чт
чт500:00+14ююз119138 0.1 101711
03:00+13всв019370 0.1 101710
06:00+13юв1191100 0.0 101711
09:00+16зсз1184100 0.1 1017154
12:00+15вюв1490100 0.0 1017158
15:00+15ююв2993100 0.5 1015404
18:00+15ююв3898100 1.8 1015437
21:00+14юв2699100 1.9 1014258
6 августа, пт
пт600:00+15юв2599100 0.3 1013250
03:00+15ююв2699100 4.1 1013320
06:00+15в2499100 0.0 1012147
09:00+16в3799100 2.8 1011378
12:00+17вюв4897100 2.4 1010536
15:00+22юв2477100 2.7 1009903
18:00+18юв3797100 2.8 1009233
21:00+17в2699100 7.3 1009183
7 августа, сб
сб700:00+17вюв41198100 5.9 1010459
03:00+15юв2597100 5.9 1010155
06:00+15в3896100 0.0 1009199
09:00+19вюв358449 0.0 1009269
12:00+26вюв356383 0.1 1009799
15:00+25юв466494 0.1 1009750
18:00+22ююв61373100 0.4 1009630
21:00+18ююв1196100 2.4 101033
8 августа, вс
вс800:00+17юв269795 1.4 1010122
03:00+16зюз1196100 2.3 101011
06:00+16з1196100 0.0 101018
09:00+19юв2396100 0.3 1011309
12:00+18сз2598100 2.0 1012255
15:00+17з1299100 11.3 1012147
18:00+17з2498100 1.8 1013170
21:00+16зюз2297100 1.9 101456